SERVIS 2 DEB

基本信息
目录编号:
43393
目录名称:
SERVIS 2 DEB
国际标识:
2010-023C
轨道中心:
EARTH
物体状态:
在轨
发射日期:
2010-06-02 UTC
轨道信息
数据来源: 国际轨道数据
星历时间: 2026-09-10T13:15:52+0800
半长轴: 7455.764km
偏心率: 0.002016
轨道倾角: 100.589°
近地点辐角: 78.711°
升交点赤经: 247.935°
平近点角: 281.628°
近地点: 1062.596km
远地点: 1092.658km
周期: 106.782分钟
每日圈数: 13.485424
详细信息
发射场:
PKMTR
轨道高度:
LEO
数据来源:
AOE Integration Group
参考系:
TEME
时间系统:
UTC
历元类型:
SGP4
2D轨道图
3D轨道图
轨道高度分析图
轨道倾角分析图
轨道综合分析图
查看轨道综合分析图